Location: Cantaing
(50.1487°N, 3.1675°E)
Time: 14:53:30
(UTC+00:00)

Okean 3 Rocket - Pass Details

Date: 14 January 2026
Orbit: 610 x 637 km, 82.5° (Epoch: 18 February)

Event Time Altitude Azimuth Distance (km) Brightness Sun altitude
Rises 05:42:14 0° 205° (SSW) 2,871 6.8 -18.4°
Reaches altitude 10° 05:44:31 10° 211° (SSW) 1,975 5.9 -18.0°
Maximum altitude 05:48:43 46° 285° (WNW) 842 3.8 -17.4°
Drops below altitude 10° 05:53:00 10° 359° (N) 2,006 6.0 -16.7°
Sets 05:55:20 0° 6° (N) 2,923 6.9 -16.3°
